Hourly Weather Amirobod

Today, 8 July, Wednesday

Time Temperature Precipitation Wind Pressure Humidity
00:00 +30°C° 0 mm 3 mps 745 mmHg 26%
01:00 +29°C° 0 mm 3 mps 745 mmHg 28%
02:00 +28°C° 0 mm 3 mps 745 mmHg 31%
03:00 +27°C° 0 mm 3 mps 745 mmHg 35%
04:00 +27°C° 0 mm 3 mps 745 mmHg 38%
05:00 +28°C° 0 mm 3 mps 745 mmHg 37%
06:00 +30°C° 0 mm 3 mps 745 mmHg 35%
07:00 +31°C° 0 mm 3 mps 745 mmHg 34%
08:00 +34°C° 0 mm 3 mps 745 mmHg 30%
09:00 +36°C° 0 mm 3 mps 745 mmHg 25%
10:00 +37°C° 0 mm 3 mps 745 mmHg 21%
11:00 +38°C° 0 mm 3 mps 745 mmHg 19%
12:00 +39°C° 0 mm 3 mps 744 mmHg 17%
13:00 +42°C° 0 mm 4 mps 744 mmHg 14%
14:00 +42°C° 0 mm 4 mps 744 mmHg 14%
15:00 +42°C° 0 mm 4 mps 744 mmHg 13%
16:00 +43°C° 0 mm 4 mps 743 mmHg 13%
17:00 +41°C° 0 mm 4 mps 743 mmHg 14%
18:00 +40°C° 0 mm 5 mps 743 mmHg 15%
19:00 +39°C° 0 mm 5 mps 743 mmHg 16%
20:00 +36°C° 0 mm 5 mps 743 mmHg 20%
21:00 +34°C° 0 mm 5 mps 744 mmHg 23%
22:00 +32°C° 0 mm 5 mps 744 mmHg 26%
23:00 +30°C° 0 mm 4 mps 743 mmHg 31%

Tomorrow, 9 July, Thursday

Time Temperature Precipitation Wind Pressure Humidity
00:00 +29°C° 0 mm 3 mps 743 mmHg 35%
01:00 +28°C° 0 mm 3 mps 743 mmHg 39%
02:00 +27°C° 0 mm 2 mps 743 mmHg 41%
03:00 +26°C° 0 mm 2 mps 743 mmHg 43%
04:00 +26°C° 0 mm 2 mps 743 mmHg 45%
05:00 +28°C° 0 mm 2 mps 743 mmHg 40%
06:00 +30°C° 0 mm 2 mps 743 mmHg 34%
07:00 +33°C° 0 mm 3 mps 743 mmHg 29%
08:00 +35°C° 0 mm 3 mps 743 mmHg 24%
09:00 +37°C° 0 mm 4 mps 743 mmHg 20%
10:00 +41°C° 0 mm 5 mps 743 mmHg 15%
11:00 +42°C° 0 mm 6 mps 743 mmHg 14%
12:00 +44°C° 0 mm 6 mps 742 mmHg 13%
13:00 +45°C° 0 mm 7 mps 742 mmHg 12%
14:00 +45°C° 0 mm 7 mps 742 mmHg 13%
15:00 +44°C° 0 mm 7 mps 741 mmHg 13%
16:00 +44°C° 0 mm 7 mps 741 mmHg 14%
17:00 +42°C° 0 mm 6 mps 741 mmHg 15%
18:00 +41°C° 0 mm 5 mps 741 mmHg 16%
19:00 +40°C° 0 mm 5 mps 741 mmHg 17%
20:00 +37°C° 0 mm 5 mps 742 mmHg 19%
21:00 +35°C° 0 mm 6 mps 742 mmHg 22%
22:00 +33°C° 0 mm 6 mps 742 mmHg 24%
23:00 +32°C° 0 mm 6 mps 742 mmHg 27%

Day after tomorrow, 10 July, Friday

Time Temperature Precipitation Wind Pressure Humidity
00:00 +30°C° 0 mm 6 mps 742 mmHg 29%
01:00 +29°C° 0 mm 5 mps 742 mmHg 32%
02:00 +29°C° 0 mm 5 mps 742 mmHg 32%
03:00 +28°C° 0 mm 4 mps 742 mmHg 33%
04:00 +28°C° 0 mm 3 mps 742 mmHg 34%
05:00 +29°C° 0 mm 4 mps 743 mmHg 31%
06:00 +32°C° 0 mm 4 mps 743 mmHg 29%
07:00 +34°C° 0 mm 4 mps 743 mmHg 26%
08:00 +35°C° 0 mm 5 mps 744 mmHg 23%
09:00 +37°C° 0 mm 5 mps 744 mmHg 20%
10:00 +40°C° 0 mm 5 mps 744 mmHg 17%
11:00 +41°C° 0 mm 6 mps 744 mmHg 16%
12:00 +42°C° 0 mm 6 mps 743 mmHg 14%
13:00 +42°C° 0 mm 6 mps 743 mmHg 13%
14:00 +43°C° 0 mm 7 mps 743 mmHg 13%
15:00 +43°C° 0 mm 8 mps 743 mmHg 13%
16:00 +41°C° 0 mm 8 mps 743 mmHg 14%
17:00 +40°C° 0 mm 8 mps 743 mmHg 15%
18:00 +39°C° 0 mm 7 mps 743 mmHg 15%
19:00 +38°C° 0 mm 6 mps 743 mmHg 16%
20:00 +36°C° 0 mm 6 mps 744 mmHg 19%
21:00 +34°C° 0 mm 6 mps 744 mmHg 22%
22:00 +32°C° 0 mm 7 mps 744 mmHg 25%
23:00 +32°C° 0 mm 6 mps 744 mmHg 26%

11 July, Saturday

Time Temperature Precipitation Wind Pressure Humidity
00:00 +30°C° 0 mm 6 mps 744 mmHg 28%
01:00 +29°C° 0 mm 6 mps 744 mmHg 29%
02:00 +29°C° 0 mm 6 mps 744 mmHg 30%
03:00 +28°C° 0 mm 5 mps 744 mmHg 31%
04:00 +28°C° 0 mm 5 mps 745 mmHg 32%
05:00 +29°C° 0 mm 6 mps 745 mmHg 29%
06:00 +32°C° 0 mm 6 mps 745 mmHg 26%
07:00 +34°C° 0 mm 7 mps 746 mmHg 22%
08:00 +36°C° 0 mm 7 mps 746 mmHg 20%
09:00 +39°C° 0 mm 6 mps 746 mmHg 17%
10:00 +41°C° 0 mm 6 mps 746 mmHg 14%
11:00 +42°C° 0 mm 6 mps 745 mmHg 13%
12:00 +42°C° 0 mm 6 mps 745 mmHg 12%
13:00 +44°C° 0 mm 7 mps 745 mmHg 11%
14:00 +44°C° 0 mm 7 mps 744 mmHg 11%
15:00 +44°C° 0 mm 8 mps 744 mmHg 11%
16:00 +44°C° 0 mm 8 mps 744 mmHg 11%
17:00 +43°C° 0 mm 7 mps 744 mmHg 13%
18:00 +41°C° 0 mm 6 mps 744 mmHg 15%
19:00 +39°C° 0 mm 5 mps 744 mmHg 17%
20:00 +38°C° 0 mm 6 mps 744 mmHg 19%
21:00 +35°C° 0 mm 6 mps 744 mmHg 22%
22:00 +34°C° 0 mm 6 mps 744 mmHg 24%
23:00 +33°C° 0 mm 6 mps 744 mmHg 27%

12 July, Sunday

Time Temperature Precipitation Wind Pressure Humidity
00:00 +33°C° 0 mm 6 mps 744 mmHg 30%
01:00 +32°C° 0 mm 5 mps 744 mmHg 32%
02:00 +32°C° 0 mm 5 mps 744 mmHg 34%
03:00 +30°C° 0 mm 5 mps 744 mmHg 35%
04:00 +30°C° 0 mm 5 mps 743 mmHg 37%
05:00 +32°C° 0 mm 5 mps 744 mmHg 33%
06:00 +34°C° 0 mm 5 mps 744 mmHg 29%
07:00 +36°C° 0 mm 6 mps 744 mmHg 26%
08:00 +39°C° 0 mm 6 mps 744 mmHg 23%
09:00 +40°C° 0 mm 7 mps 744 mmHg 20%
10:00 +43°C° 0 mm 7 mps 744 mmHg 17%
11:00 +43°C° 0 mm 7 mps 743 mmHg 15%
12:00 +44°C° 0 mm 7 mps 743 mmHg 13%
13:00 +45°C° 0 mm 7 mps 742 mmHg 11%
14:00 +45°C° 0 mm 7 mps 742 mmHg 11%
15:00 +45°C° 0 mm 7 mps 742 mmHg 10%
16:00 +45°C° 0 mm 6 mps 742 mmHg 10%
17:00 +44°C° 0 mm 6 mps 742 mmHg 12%
18:00 +42°C° 0 mm 6 mps 741 mmHg 13%
19:00 +41°C° 0 mm 6 mps 741 mmHg 14%
20:00 +39°C° 0 mm 6 mps 742 mmHg 16%
21:00 +36°C° 0 mm 6 mps 742 mmHg 18%
22:00 +35°C° 0 mm 5 mps 742 mmHg 19%
23:00 +34°C° 0 mm 5 mps 742 mmHg 19%

13 July, Monday

Time Temperature Precipitation Wind Pressure Humidity
00:00 +33°C° 0 mm 5 mps 742 mmHg 19%
01:00 +33°C° 0 mm 5 mps 742 mmHg 19%
02:00 +32°C° 0 mm 5 mps 742 mmHg 19%
03:00 +30°C° 0 mm 5 mps 742 mmHg 19%
04:00 +30°C° 0 mm 5 mps 742 mmHg 19%
05:00 +32°C° 0 mm 6 mps 742 mmHg 18%
06:00 +33°C° 0 mm 6 mps 742 mmHg 16%
07:00 +35°C° 0 mm 7 mps 742 mmHg 15%
08:00 +36°C° 0 mm 7 mps 742 mmHg 13%
09:00 +39°C° 0 mm 7 mps 742 mmHg 12%
10:00 +41°C° 0 mm 7 mps 742 mmHg 11%
11:00 +43°C° 0 mm 7 mps 742 mmHg 10%
12:00 +44°C° 0 mm 6 mps 742 mmHg 8%
13:00 +45°C° 0 mm 6 mps 741 mmHg 7%
14:00 +45°C° 0 mm 6 mps 741 mmHg 7%
15:00 +45°C° 0 mm 6 mps 741 mmHg 7%
16:00 +45°C° 0 mm 6 mps 740 mmHg 6%
17:00 +44°C° 0 mm 6 mps 740 mmHg 7%
18:00 +42°C° 0 mm 5 mps 740 mmHg 7%
19:00 +40°C° 0 mm 5 mps 740 mmHg 7%
20:00 +39°C° 0 mm 5 mps 740 mmHg 8%
21:00 +36°C° 0 mm 4 mps 740 mmHg 9%
22:00 +34°C° 0 mm 4 mps 740 mmHg 9%
23:00 +34°C° 0 mm 5 mps 740 mmHg 10%
Show more